Domov               UVHVVR             MKGP            O straneh              
ZDRAVSTVENO VARSTVO RASTLIN
  MREŽA AGROMET. POSTAJ
 ► PROGNOSTIČNA OBVESTILA
AGROMETEOROLOŠKI PODATKI -
ARSO
OBVLADOVANJE TVEGANJ ZARADI
NEUGODNIH VREMENSKIH RAZMER
  ► NARAVNE NESREČE
  ► SUŠA/MOČA
  ► NAMAKANJE
  ► ŽLED (gozdarstvo)
KARTOGRAFSKI PRIKAZI
SPLETNE POVEZAVE
PROJEKTI IN PUBLIKACIJE

AGROMETEOROLOŠKA MREŽA: VREMENSKE POSTAJE IN FENOLOŠKA OPAZOVANJA

Pregled podatkov za lokacijo Kozana, meteorološka postaja 863701

Pregled senzorjev na lokaciji

ID Ime Zadnja
vrednost
Datum
zadnje
spremembe
Tip
senzorja
4186 Temperatura 2 m ( °C) 25,29 °C 24.6.2017 22:00 50YA
4187 Relativna vlaga 2 m (% RH) 74,5 % RH 24.6.2017 22:00 50YA
4188 Omočenost lista (U) 0 U 24.6.2017 22:00 A730WET
4189 Padavine 0.2 mm (mm) 0 mm 24.6.2017 22:00 Rain-O-Matic

Pregled podatkov zadnjih 24 ur

Zap.
št.
Datum in čas Kozana
Omočenost
lista
Padavine
0.2
mm
Relativna
vlaga
2
m
Temperatura
2
m
0 24.6.2017 21:00 0 0 74,5 25,29
1 24.6.2017 20:30 0 0 74,38 25,48
2 24.6.2017 20:00 0 0 72,83 25,88
3 24.6.2017 19:30 0 0 71,18 26,51
4 24.6.2017 19:00 0 0 68,09 27,22
5 24.6.2017 18:30 0 0 65,24 27,84
6 24.6.2017 18:00 0 0 62,62 28,65
7 24.6.2017 17:30 0 0 57,86 30
8 24.6.2017 17:00 0 0 54,44 30,66
9 24.6.2017 16:30 0 0 53,84 31,03
10 24.6.2017 16:00 0 0 55,53 31,23
11 24.6.2017 15:30 0 0 53,82 31,4
12 24.6.2017 15:00 0 0 50,01 32,18
13 24.6.2017 14:30 0 0 49,02 33
14 24.6.2017 14:00 0 0 47,89 33,3
15 24.6.2017 13:30 0 0 50,62 32,8
16 24.6.2017 13:00 0 0 50,48 32,45
17 24.6.2017 12:30 0 0 50,42 32,74
18 24.6.2017 12:00 0 0 48,91 32,77
19 24.6.2017 11:30 0 0 51,49 32,35
20 24.6.2017 11:00 0 0 50,38 31,95
21 24.6.2017 10:30 0 0 51,5 31,03
22 24.6.2017 10:00 0 0 53,46 30,94
23 24.6.2017 09:30 0 0 55,21 30,36
24 24.6.2017 09:00 0 0 51,57 30,1
25 24.6.2017 08:30 0 0 61,77 29,01
26 24.6.2017 08:00 0 0 67,72 27,96
27 24.6.2017 07:30 0 0 74,25 26,14
28 24.6.2017 07:00 0 0 76,96 25,63
29 24.6.2017 06:30 0 0 75,94 25,25
30 24.6.2017 06:00 0 0 78,36 24,38
31 24.6.2017 05:30 0 0 79,95 23,72
32 24.6.2017 05:00 0 0 82,85 23,26
33 24.6.2017 04:30 0 0 85,14 22,85
34 24.6.2017 04:00 0 0 85,93 22,7
35 24.6.2017 03:30 0 0 88,05 22,59
36 24.6.2017 03:00 0 0 87,92 23,11
37 24.6.2017 02:30 0 0 87,73 22,69
38 24.6.2017 02:00 0 0 84,8 23,28
39 24.6.2017 01:30 0 0 84,31 23,34
40 24.6.2017 01:00 0 0 80,76 24,21
41 24.6.2017 00:30 0 0 77,47 24,71
42 24.6.2017 00:00 0 0 76,06 24,68
43 23.6.2017 23:30 0 0 77,8 24,27
44 23.6.2017 23:00 0 0 77,57 24,6
© 2011 Ministrstvo za kmetijstvo, gozdarstvo in prehrano. Vse pravice pridržane.